Location: ???????
(55.4362°N, 38.1183°E)
Time: 08:55:44
(UTC+00:00)

Oscar 11 - Pass Details

Date: 03 December 2021
Orbit: 611 x 625 km, 97.6° (Epoch: 25 January)

Event Time Altitude Azimuth Distance (km) Brightness Sun altitude
Rises 02:58:56 0° 15° (NNE) 2,925 10.6 -20.6°
Reaches altitude 10° 03:01:09 10° 18° (NNE) 2,012 9.8 -20.3°
Maximum altitude 03:05:32 71° 102° (ESE) 665 7.3 -19.7°
Drops below altitude 10° 03:09:51 10° 188° (S) 1,989 9.7 -19.1°
Sets 03:12:02 0° 190° (S) 2,888 10.5 -18.8°
